This is the latest recevied weather packets stored in our database for station/object KC5DAQ-26. If no packets are shown the sender has not sent any weather packets the latest 10 day(s).
| Time | Temp. | Humidity | Pressure | Rain* | Wind** | Luminosity | Snow |
|---|---|---|---|---|---|---|---|
| 1787943358 | 35° C | 59% | 1019.2 hPa | 0 mm | - | 951 W/m² | - |
| 1787943297 | 35° C | 63% | 1019.2 hPa | 0 mm | - | 950 W/m² | - |
| 1787943239 | 35° C | 63% | 1019.2 hPa | 0 mm | - | 950 W/m² | - |
| 1787943177 | 35° C | 57% | 1019.2 hPa | 0 mm | - | 958 W/m² | - |
| 1787943118 | 35° C | 57% | 1019.3 hPa | 0 mm | - | 958 W/m² | - |
| 1787943057 | 34.44° C | 57% | 1019.3 hPa | 0 mm | - | 958 W/m² | - |
| 1787942998 | 34.44° C | 56% | 1019.3 hPa | 0 mm | - | 957 W/m² | - |
| 1787942939 | 34.44° C | 56% | 1019.4 hPa | 0 mm | - | 955 W/m² | - |
| 1787942879 | 34.44° C | 56% | 1019.4 hPa | 0 mm | - | 953 W/m² | - |
| 1787942817 | 35° C | 57% | 1019.4 hPa | 0 mm | - | 948 W/m² | - |
| 1787942758 | 35° C | 56% | 1019.5 hPa | 0 mm | - | 950 W/m² | - |
| 1787942699 | 35° C | 56% | 1019.5 hPa | 0 mm | - | 953 W/m² | - |
| 1787942639 | 35° C | 57% | 1019.5 hPa | 0 mm | - | 953 W/m² | - |
| 1787942577 | 34.44° C | 57% | 1019.5 hPa | 0 mm | - | 953 W/m² | - |
| 1787942518 | 34.44° C | 57% | 1019.6 hPa | 0 mm | - | 955 W/m² | - |
| 1787942457 | 34.44° C | 58% | 1019.6 hPa | 0 mm | - | 957 W/m² | - |
| 1787942397 | 34.44° C | 60% | 1019.5 hPa | 0 mm | - | 955 W/m² | - |
| 1787942338 | 34.44° C | 57% | 1019.6 hPa | 0 mm | - | 957 W/m² | - |
| 1787942277 | 34.44° C | 59% | 1019.6 hPa | 0 mm | - | 955 W/m² | - |
| 1787942218 | 35° C | 59% | 1019.7 hPa | 0 mm | - | 953 W/m² | - |
| 1787942159 | 35° C | 59% | 1019.6 hPa | 0 mm | - | 953 W/m² | - |
| 1787942098 | 35° C | 58% | 1019.7 hPa | 0 mm | - | 949 W/m² | - |
| 1787942037 | 35° C | 59% | 1019.7 hPa | 0 mm | - | 948 W/m² | - |
| 1787941977 | 35° C | 59% | 1019.7 hPa | 0 mm | - | 946 W/m² | - |
| 1787941918 | 35° C | 58% | 1019.7 hPa | 0 mm | - | 939 W/m² | - |
* Rain latest hour (hover to see other rain measurements)
** Current wind speed in m/s (hover to see current wind gust speed)